period_start,C,m1,H,J0,J1,J2,J3,J4,J5,JA,JB,JC,JD,JJ,JK,JN,#
2014-10-04 00:00:37,0.02,0.57,0.00,23.34,27.32,30.08,4.79,26.78,1017.10,2036.92,3251.05,3155.00,3418.08,350.02,347.23,12.94,0000 0000 0000 0000 000000
2014-10-04 00:05:38,0.00,0.57,0.00,23.34,27.32,30.08,4.82,26.83,1017.08,2036.84,3250.78,3154.92,3418.00,349.88,347.34,12.97,0000 0000 0000 0000 000000
2014-10-04 00:10:39,0.05,0.58,0.00,23.35,27.32,30.07,4.81,26.83,1017.04,2036.77,3250.06,3154.28,3417.55,350.44,347.94,13.00,0000 0000 0000 0000 000000
2014-10-04 00:15:41,0.01,0.58,0.00,23.32,27.32,30.12,4.79,26.93,1017.04,2036.47,3249.22,3154.00,3417.01,349.47,346.91,13.03,0000 0000 0000 0000 000000
2014-10-04 00:20:42,0.03,0.58,0.00,23.34,27.32,30.13,4.77,26.66,1017.05,2036.59,3248.95,3153.84,3416.91,349.71,347.28,13.06,0000 0000 0000 0000 000000
2014-10-04 00:25:43,0.06,0.58,0.00,23.32,27.32,30.12,4.73,26.81,1017.01,2036.57,3248.26,3153.21,3416.21,350.23,347.72,13.09,0000 0000 0000 0000 000000
2014-10-04 00:30:44,-0.02,0.58,0.00,23.36,27.33,30.10,4.70,26.76,1016.96,2036.27,3247.76,3152.99,3415.97,349.78,346.93,13.12,0000 0000 0000 0000 000000
2014-10-04 00:35:46,0.06,0.58,0.00,23.32,27.33,30.12,4.74,26.77,1016.99,2036.25,3247.04,3152.71,3415.35,350.17,347.58,13.14,0000 0000 0000 0000 000000
2014-10-04 00:40:47,0.05,0.58,0.00,23.29,27.33,30.12,4.81,26.78,1017.08,2036.30,3246.68,3152.07,3415.01,350.15,347.59,13.17,0000 0000 0000 0000 000000
2014-10-04 00:45:48,0.02,0.58,0.00,23.32,27.34,30.11,4.82,26.79,1017.10,2036.44,3246.04,3151.99,3414.92,350.10,347.65,13.20,0000 0000 0000 0000 000000
2014-10-04 00:50:50,0.05,0.58,0.00,23.33,27.35,30.07,4.79,26.76,1017.07,2036.28,3245.51,3151.82,3414.14,350.57,348.00,13.23,0000 0000 0000 0000 000000
2014-10-04 00:55:51,0.02,0.58,0.00,23.29,27.35,30.07,4.79,26.84,1017.04,2036.12,3244.93,3151.06,3413.93,350.20,347.58,13.26,0000 0000 0000 0000 000000
2014-10-04 01:00:52,0.05,0.59,0.00,23.30,27.35,30.10,4.73,26.81,1017.03,2036.08,3244.15,3150.97,3413.23,349.62,347.07,13.29,0000 0000 0000 0000 000000
2014-10-04 01:05:53,0.03,0.59,0.00,23.32,27.35,30.03,4.82,26.85,1016.88,2036.07,3243.80,3150.51,3413.00,350.30,347.60,13.32,0000 0000 0000 0000 000000
2014-10-04 01:10:54,0.05,0.59,0.00,23.31,27.35,30.07,4.81,26.86,1016.84,2036.07,3243.03,3150.01,3412.55,349.82,347.18,13.35,0000 0000 0000 0000 000000
2014-10-04 01:15:56,0.04,0.59,0.00,23.27,27.35,30.07,4.83,26.96,1016.90,2036.08,3242.21,3149.93,3412.01,350.16,347.58,13.38,0000 0000 0000 0000 000000
2014-10-04 01:20:57,0.04,0.59,0.00,23.27,27.36,30.09,4.86,26.81,1016.90,2036.11,3241.93,3149.26,3411.88,350.29,347.66,13.41,0000 0000 0000 0000 000000
2014-10-04 01:25:59,0.05,0.59,0.00,23.27,27.37,30.05,4.77,26.85,1016.79,2036.13,3241.14,3149.00,3411.13,349.94,347.55,13.44,0000 0000 0000 0000 000000
2014-10-04 01:31:00,0.03,0.59,0.00,23.25,27.37,30.11,4.79,26.85,1016.87,2036.14,3240.69,3148.83,3410.98,349.72,347.28,13.47,0000 0000 0000 0000 000000
2014-10-04 01:36:02,0.06,0.60,0.00,23.29,27.37,30.10,4.74,26.80,1017.00,2036.11,3239.97,3148.09,3410.20,349.87,347.32,13.50,0000 0000 0000 0000 000000
2014-10-04 01:41:03,0.03,0.60,0.00,23.29,27.37,30.10,4.77,26.82,1016.91,2036.14,3239.12,3147.95,3409.94,349.88,347.37,13.53,0000 0000 0000 0000 000000
2014-10-04 01:46:04,0.07,0.60,0.00,23.26,27.37,30.09,4.77,26.82,1016.98,2036.07,3238.42,3147.16,3409.13,349.69,347.30,13.55,0000 0000 0000 0000 000000
2014-10-04 01:51:06,0.00,0.60,0.00,23.28,27.37,30.07,4.79,26.77,1016.99,2036.07,3237.99,3146.99,3408.97,350.11,347.62,13.58,0000 0000 0000 0000 000000
2014-10-04 01:56:07,0.09,0.60,0.00,23.30,27.37,30.09,4.71,26.73,1017.02,2036.12,3237.20,3146.50,3408.21,349.55,347.32,13.61,0000 0000 0000 0000 000000
2014-10-04 02:01:08,0.02,0.60,0.00,23.27,27.38,30.08,4.81,26.81,1016.95,2036.14,3236.58,3146.02,3407.99,349.52,347.07,13.64,0000 0000 0000 0000 000000
2014-10-04 02:06:09,0.06,0.60,0.00,23.30,27.39,30.09,4.79,26.82,1016.93,2036.30,3235.99,3145.92,3407.47,350.30,347.79,13.67,0000 0000 0000 0000 000000
2014-10-04 02:11:11,0.03,0.61,0.00,23.31,27.40,30.08,4.78,26.77,1016.94,2036.11,3235.18,3145.12,3406.90,350.17,347.55,13.70,0000 0000 0000 0000 000000
2014-10-04 02:16:12,0.05,0.61,0.00,23.29,27.40,30.15,4.84,26.98,1016.96,2036.06,3234.21,3144.85,3406.08,350.08,347.53,13.73,0000 0000 0000 0000 000000
2014-10-04 02:21:14,0.05,0.61,0.00,23.27,27.40,30.14,4.78,26.80,1016.93,2036.04,3233.78,3144.10,3405.85,350.21,347.80,13.76,0000 0000 0000 0000 000000
2014-10-04 02:26:15,0.04,0.61,0.00,23.29,27.40,30.09,4.79,26.83,1016.97,2036.02,3232.93,3143.87,3405.07,349.39,346.87,13.79,0000 0000 0000 0000 000000
2014-10-04 02:31:16,0.07,0.61,0.00,23.29,27.40,30.07,4.74,26.74,1016.99,2036.04,3232.10,3143.13,3404.60,349.75,347.22,13.82,0000 0000 0000 0000 000000
2014-10-04 02:36:17,0.03,0.61,0.00,23.27,27.41,30.12,4.75,26.73,1017.00,2036.06,3231.32,3142.98,3404.02,349.86,347.21,13.85,0000 0000 0000 0000 000000
2014-10-04 02:41:18,0.07,0.62,0.00,23.26,27.42,30.16,4.81,26.72,1017.01,2036.07,3230.80,3142.34,3403.66,350.19,347.76,13.88,0000 0000 0000 0000 000000
2014-10-04 02:46:19,0.03,0.62,0.00,23.30,27.42,30.15,4.77,26.71,1016.96,2036.06,3229.97,3141.98,3403.00,349.32,346.81,13.91,0000 0000 0000 0000 000000
2014-10-04 02:51:20,0.07,0.62,0.00,23.29,27.42,30.16,4.76,26.69,1016.74,2036.04,3229.26,3141.56,3402.54,349.88,347.26,13.94,0000 0000 0000 0000 000000
2014-10-04 02:56:21,0.04,0.62,0.00,23.29,27.42,30.19,4.76,26.75,1016.64,2036.02,3228.55,3141.01,3402.00,350.02,347.31,13.96,0000 0000 0000 0000 000000
2014-10-04 03:01:22,0.04,0.62,0.00,23.30,27.42,30.18,4.77,26.63,1016.63,2036.06,3228.00,3140.83,3401.40,349.86,347.27,13.99,0000 0000 0000 0000 000000
2014-10-04 03:06:23,0.06,0.62,0.00,23.31,27.42,30.17,4.76,26.70,1016.62,2036.05,3227.24,3140.08,3401.00,349.67,347.14,14.02,0000 0000 0000 0000 000000
2014-10-04 03:11:25,0.04,0.62,0.00,23.27,27.42,30.21,4.78,26.89,1016.62,2036.08,3226.74,3139.98,3400.70,350.54,347.90,14.05,0000 0000 0000 0000 000000
2014-10-04 03:16:26,0.05,0.63,0.00,23.27,27.42,30.16,4.83,26.88,1016.62,2036.03,3226.04,3139.26,3400.03,350.16,347.56,14.08,0000 0000 0000 0000 000000
2014-10-04 03:21:27,0.03,0.63,0.00,23.30,27.43,30.16,4.79,26.71,1016.61,2036.05,3225.62,3139.01,3399.87,350.12,347.54,14.11,0000 0000 0000 0000 000000
2014-10-04 03:26:28,0.03,0.63,0.00,23.31,27.43,30.16,4.77,26.92,1016.60,2036.04,3225.00,3138.94,3399.13,349.36,347.10,14.14,0000 0000 0000 0000 000000
2014-10-04 03:31:30,0.05,0.63,0.00,23.27,27.44,30.16,4.71,26.78,1016.61,2036.06,3224.49,3138.28,3398.98,349.34,346.71,14.17,0000 0000 0000 0000 000000
2014-10-04 03:36:31,0.03,0.63,0.00,23.29,27.44,30.19,4.73,26.79,1016.61,2036.06,3224.01,3138.01,3398.34,350.09,347.44,14.20,0000 0000 0000 0000 000000
2014-10-04 03:41:32,0.03,0.63,0.00,23.31,27.44,30.14,4.81,26.83,1016.61,2036.10,3223.38,3137.93,3398.00,350.49,347.85,14.23,0000 0000 0000 0000 000000
2014-10-04 03:46:33,0.07,0.63,0.00,23.29,27.45,30.13,4.78,26.78,1016.60,2036.07,3222.72,3137.17,3397.51,350.18,347.42,14.26,0000 0000 0000 0000 000000
2014-10-04 03:51:35,0.02,0.63,0.00,23.27,27.45,30.18,4.81,26.82,1016.59,2036.07,3222.02,3137.00,3397.01,349.95,347.31,14.29,0000 0000 0000 0000 000000
2014-10-04 03:56:36,0.03,0.64,0.00,23.30,27.45,30.18,4.76,26.90,1016.59,2036.06,3221.59,3136.85,3396.85,349.90,347.21,14.32,0000 0000 0000 0000 000000
2014-10-04 04:01:37,0.06,0.64,0.00,23.28,27.45,30.19,4.75,26.92,1016.59,2036.07,3221.05,3136.18,3396.15,349.58,347.00,14.35,0000 0000 0000 0000 000000
2014-10-04 04:06:38,0.00,0.64,0.00,23.27,27.45,30.22,4.78,26.89,1016.56,2036.05,3220.88,3136.00,3396.00,350.12,347.49,14.37,0000 0000 0000 0000 000000
2014-10-04 04:11:40,0.06,0.64,0.00,23.29,27.45,30.20,4.77,27.06,1016.54,2036.02,3220.10,3135.71,3395.55,349.20,346.59,14.40,0000 0000 0000 0000 000000
2014-10-04 04:16:41,0.05,0.64,0.00,23.28,27.45,30.19,4.80,26.94,1016.55,2036.02,3219.47,3135.04,3395.01,350.21,347.28,14.43,0000 0000 0000 0000 000000
2014-10-04 04:21:42,0.01,0.64,0.00,23.26,27.45,30.20,4.72,26.83,1016.42,2036.03,3219.03,3135.00,3394.94,349.47,346.89,14.46,0000 0000 0000 0000 000000
2014-10-04 04:26:43,0.05,0.64,0.00,23.27,27.45,30.19,4.73,26.86,1016.48,2036.04,3218.55,3134.97,3394.17,349.66,347.04,14.49,0000 0000 0000 0000 000000
2014-10-04 04:31:44,0.04,0.64,0.00,23.31,27.45,30.17,4.77,26.98,1016.41,2036.02,3218.02,3134.49,3394.00,349.97,347.16,14.52,0000 0000 0000 0000 000000
2014-10-04 04:36:45,0.03,0.64,0.00,23.27,27.45,30.17,4.75,26.93,1016.31,2036.04,3217.75,3134.02,3393.70,349.94,347.34,14.55,0000 0000 0000 0000 000000
2014-10-04 04:41:47,0.02,0.65,0.00,23.25,27.45,30.22,4.74,26.88,1016.36,2036.01,3217.03,3133.95,3393.03,349.54,346.90,14.58,0000 0000 0000 0000 000000
2014-10-04 04:46:48,0.03,0.65,0.00,23.28,27.45,30.22,4.72,26.82,1016.26,2036.01,3216.80,3133.50,3392.97,349.59,346.97,14.61,0000 0000 0000 0000 000000
2014-10-04 04:51:49,0.05,0.65,0.00,23.28,27.45,30.20,4.72,26.85,1016.22,2036.01,3216.06,3133.02,3392.22,349.51,346.80,14.64,0000 0000 0000 0000 000000
2014-10-04 04:56:51,0.02,0.65,0.00,23.25,27.45,30.22,4.77,26.88,1016.32,2036.02,3215.66,3132.97,3392.01,349.96,347.14,14.67,0000 0000 0000 0000 000000
2014-10-04 05:01:52,0.04,0.65,0.00,23.25,27.45,30.23,4.78,26.86,1016.32,2036.02,3215.03,3132.54,3391.78,350.02,347.52,14.70,0000 0000 0000 0000 000000
2014-10-04 05:06:53,0.04,0.65,0.00,23.30,27.46,30.19,4.77,26.83,1016.37,2036.04,3214.63,3132.02,3391.08,349.80,346.96,14.73,0000 0000 0000 0000 000000
2014-10-04 05:11:55,0.02,0.65,0.00,23.27,27.47,30.20,4.75,26.94,1016.31,2036.02,3213.96,3131.92,3390.98,350.27,347.48,14.76,0000 0000 0000 0000 000000
2014-10-04 05:16:56,0.07,0.65,0.00,23.25,27.46,30.17,4.81,26.93,1016.37,2036.01,3213.21,3131.21,3390.57,350.22,347.55,14.78,0000 0000 0000 0000 000000
2014-10-04 05:21:57,0.02,0.66,0.00,23.33,27.47,30.25,4.78,26.94,1016.46,2036.00,3212.89,3131.01,3390.02,349.50,346.92,14.81,0000 0000 0000 0000 000000
2014-10-04 05:26:59,0.06,0.66,0.00,23.32,27.47,30.23,4.78,26.72,1016.53,2036.01,3212.10,3130.73,3389.67,350.10,347.42,14.84,0000 0000 0000 0000 000000
2014-10-04 05:32:00,0.05,0.66,0.00,23.24,27.47,30.24,4.71,26.94,1016.55,2036.00,3211.49,3130.04,3389.02,349.39,346.93,14.87,0000 0000 0000 0000 000000
2014-10-04 05:37:01,0.01,0.66,0.00,23.24,27.47,30.24,4.83,26.90,1016.44,2036.00,3211.01,3129.99,3388.86,350.28,347.73,14.90,0000 0000 0000 0000 000000
2014-10-04 05:42:02,0.08,0.66,0.00,23.30,27.47,30.26,4.79,26.88,1016.52,2036.00,3210.35,3129.41,3388.11,349.70,347.08,14.93,0000 0000 0000 0000 000000
2014-10-04 05:47:04,0.02,0.66,0.00,23.26,27.47,30.24,4.78,26.78,1016.52,2036.00,3209.80,3129.00,3387.88,349.30,346.84,14.96,0000 0000 0000 0000 000000
2014-10-04 05:52:05,0.05,0.66,0.00,23.26,27.47,30.26,4.75,26.68,1016.59,2036.00,3209.06,3128.81,3387.11,350.05,347.41,14.99,0000 0000 0000 0000 000000
2014-10-04 05:57:06,0.05,0.67,0.00,23.30,27.48,30.26,4.78,26.91,1016.62,2036.00,3208.57,3128.10,3386.93,350.17,347.30,15.02,0000 0000 0000 0000 000000
2014-10-04 06:02:07,0.03,0.67,0.00,23.27,27.48,30.26,4.79,26.82,1016.62,2036.00,3208.00,3127.99,3386.15,349.94,347.16,15.05,0000 0000 0000 0000 000000
2014-10-04 06:07:09,0.06,0.67,0.00,23.25,27.48,30.23,4.77,26.81,1016.62,2036.00,3207.35,3127.47,3385.99,349.90,347.56,15.08,0000 0000 0000 0000 000000
2014-10-04 06:12:10,0.04,0.67,0.00,23.36,27.49,30.25,4.76,26.88,1016.62,2036.00,3206.88,3127.02,3385.46,349.90,347.22,15.11,0000 0000 0000 0000 000000
2014-10-04 06:17:11,0.03,0.67,0.00,23.33,27.49,30.27,4.81,26.93,1016.62,2036.00,3206.08,3126.83,3385.00,349.98,347.25,15.14,0000 0000 0000 0000 000000
2014-10-04 06:22:12,0.06,0.67,0.00,23.28,27.49,30.27,4.77,26.75,1016.62,2036.00,3205.75,3126.20,3384.59,349.81,347.31,15.17,0000 0000 0000 0000 000000
2014-10-04 06:27:14,0.02,0.67,0.00,23.28,27.50,30.26,4.83,26.77,1016.62,2036.00,3205.03,3125.99,3384.01,350.06,347.35,15.19,0000 0000 0000 0000 000000
2014-10-04 06:32:15,0.06,0.67,0.00,23.29,27.50,30.24,4.74,26.76,1016.62,2036.00,3204.44,3125.59,3383.72,349.90,347.15,15.22,0000 0000 0000 0000 000000
2014-10-04 06:37:16,0.03,0.68,0.00,23.31,27.50,30.20,4.79,26.82,1016.62,2036.00,3204.00,3125.04,3383.07,349.96,347.21,15.25,0000 0000 0000 0000 000000
2014-10-04 06:42:18,0.02,0.68,0.00,23.28,27.50,30.24,4.75,26.81,1016.62,2036.01,3203.31,3124.99,3382.87,349.92,347.33,15.28,0000 0000 0000 0000 000000
2014-10-04 06:47:19,0.06,0.68,0.00,23.26,27.50,30.26,4.76,26.77,1016.61,2036.00,3202.91,3124.41,3382.10,349.80,347.18,15.31,0000 0000 0000 0000 000000
2014-10-04 06:52:20,0.03,0.68,0.00,23.29,27.50,30.27,4.79,26.74,1016.61,2036.00,3202.11,3124.01,3381.95,350.21,347.34,15.34,0000 0000 0000 0000 000000
2014-10-04 06:57:22,0.06,0.68,0.00,23.29,27.50,30.25,4.75,26.89,1016.62,2036.00,3201.59,3123.76,3381.15,349.64,346.96,15.37,0000 0000 0000 0000 000000
2014-10-04 07:02:23,0.04,0.68,0.00,23.27,27.49,30.25,4.80,26.88,1016.60,2036.00,3200.92,3123.06,3380.89,350.20,347.62,15.40,0000 0000 0000 0000 000000
2014-10-04 07:07:24,0.05,0.69,0.00,23.24,27.49,30.25,4.66,26.82,1016.61,2036.00,3200.08,3122.92,3380.11,349.36,346.64,15.43,0000 0000 0000 0000 000000
2014-10-04 07:12:25,0.07,0.69,0.00,23.30,27.48,30.27,4.81,27.02,1016.62,2036.00,3199.51,3122.16,3379.78,349.90,347.26,15.46,0000 0000 0000 0000 000000
2014-10-04 07:17:26,0.03,0.69,0.00,23.30,27.48,30.22,4.79,26.79,1016.62,2036.01,3199.00,3121.99,3379.05,350.04,347.19,15.49,0000 0000 0000 0000 000000
2014-10-04 07:22:27,0.04,0.69,0.00,23.27,27.47,30.22,4.85,26.80,1016.62,2036.02,3198.41,3121.63,3378.97,350.29,347.48,15.52,0000 0000 0000 0000 000000
2014-10-04 07:27:28,0.05,0.69,0.00,23.27,27.47,30.24,4.80,26.89,1016.62,2036.00,3197.95,3121.03,3378.16,349.84,347.21,15.55,0000 0000 0000 0000 000000
2014-10-04 07:32:30,0.03,0.69,0.00,23.27,27.47,30.22,4.75,26.81,1016.62,2036.00,3197.17,3120.87,3377.88,350.01,347.42,15.58,0000 0000 0000 0000 000000
2014-10-04 07:37:31,0.07,0.69,0.00,23.28,27.47,30.22,4.72,26.77,1016.62,2036.00,3196.60,3120.11,3377.11,349.84,347.06,15.60,0000 0000 0000 0000 000000
2014-10-04 07:42:32,0.01,0.69,0.00,23.27,27.47,30.17,4.77,26.82,1016.62,2036.01,3196.00,3119.99,3376.95,350.12,347.28,15.63,0000 0000 0000 0000 000000
2014-10-04 07:47:34,0.08,0.70,0.00,23.30,27.47,30.22,4.74,26.82,1016.63,2036.01,3195.36,3119.61,3376.19,349.79,347.18,15.66,0000 0000 0000 0000 000000
2014-10-04 07:52:35,0.03,0.70,0.00,23.30,27.47,30.21,4.70,26.76,1016.63,2036.01,3194.72,3119.01,3375.85,349.61,346.86,15.69,0000 0000 0000 0000 000000
2014-10-04 07:57:36,0.06,0.70,0.00,23.29,27.47,30.22,4.79,26.85,1016.63,2036.01,3194.00,3118.61,3375.07,349.97,347.49,15.72,0000 0000 0000 0000 000000
2014-10-04 08:02:37,0.05,0.70,0.00,23.30,27.47,30.23,4.76,26.88,1016.62,2036.01,3193.26,3118.02,3374.64,349.44,346.87,15.75,0000 0000 0000 0000 000000
2014-10-04 08:07:38,0.04,0.70,0.00,23.28,27.47,30.20,4.83,26.80,1016.63,2036.01,3192.68,3117.76,3374.01,350.05,347.41,15.78,0000 0000 0000 0000 000000
2014-10-04 08:12:40,0.06,0.70,0.00,23.26,27.47,30.22,4.81,27.02,1016.63,2036.02,3191.93,3117.07,3373.53,350.10,347.40,15.81,0000 0000 0000 0000 000000
2014-10-04 08:17:41,0.02,0.71,0.00,23.30,27.47,30.25,4.81,26.82,1016.62,2036.01,3191.22,3116.97,3373.00,350.06,347.40,15.84,0000 0000 0000 0000 000000
2014-10-04 08:22:43,0.05,0.71,0.00,23.32,27.47,30.23,4.74,26.89,1016.62,2036.01,3190.98,3116.29,3372.75,349.93,347.33,15.87,0000 0000 0000 0000 000000
2014-10-04 08:27:44,0.04,0.71,0.00,23.30,27.47,30.22,4.77,26.73,1016.62,2036.01,3190.27,3116.00,3372.05,349.68,347.01,15.90,0000 0000 0000 0000 000000
2014-10-04 08:32:45,0.02,0.71,0.00,23.26,27.47,30.23,4.76,26.82,1016.62,2036.01,3189.90,3115.83,3371.82,349.68,346.99,15.93,0000 0000 0000 0000 000000
2014-10-04 08:37:46,0.07,0.71,0.00,23.30,27.47,30.25,4.74,26.82,1016.62,2036.00,3189.10,3115.07,3371.07,349.81,347.32,15.96,0000 0000 0000 0000 000000
2014-10-04 08:42:47,0.01,0.71,0.00,23.31,27.47,30.22,4.76,26.88,1016.63,2036.01,3188.83,3114.99,3370.97,349.91,347.23,15.99,0000 0000 0000 0000 000000
2014-10-04 08:47:49,0.06,0.71,0.00,23.28,27.47,30.25,4.75,26.74,1016.63,2036.02,3188.18,3114.79,3370.51,349.92,347.29,16.01,0000 0000 0000 0000 000000
2014-10-04 08:52:50,0.03,0.72,0.00,23.32,27.47,30.23,4.79,26.80,1016.63,2036.00,3187.79,3114.05,3370.00,349.83,347.17,16.04,0000 0000 0000 0000 000000
2014-10-04 08:57:51,0.04,0.72,0.00,23.27,27.47,30.23,4.72,26.76,1016.62,2036.01,3187.04,3113.98,3369.41,349.74,346.97,16.07,0000 0000 0000 0000 000000
2014-10-04 09:02:52,0.06,0.72,0.00,23.30,27.47,30.22,4.77,26.85,1016.63,2036.01,3186.57,3113.39,3369.02,349.36,346.68,16.10,0000 0000 0000 0000 000000
2014-10-04 09:07:53,0.03,0.72,0.00,23.29,27.47,30.20,4.75,26.87,1016.63,2036.02,3186.00,3113.01,3368.74,349.88,347.18,16.13,0000 0000 0000 0000 000000
2014-10-04 09:12:54,0.05,0.72,0.00,23.27,27.47,30.20,4.71,26.93,1016.65,2036.00,3185.32,3112.79,3368.05,350.06,347.41,16.16,0000 0000 0000 0000 000000
2014-10-04 09:17:56,0.04,0.72,0.00,23.26,27.46,30.23,4.80,26.90,1016.66,2036.01,3184.92,3112.08,3367.74,350.20,347.75,16.19,0000 0000 0000 0000 000000
2014-10-04 09:22:57,0.03,0.72,0.00,23.29,27.46,30.23,4.78,26.80,1016.64,2036.01,3184.14,3111.99,3367.08,349.84,347.26,16.22,0000 0000 0000 0000 000000
2014-10-04 09:27:58,0.05,0.72,0.00,23.31,27.46,30.19,4.75,26.82,1016.63,2036.02,3183.82,3111.49,3366.89,350.01,347.17,16.25,0000 0000 0000 0000 000000
2014-10-04 09:32:59,0.05,0.73,0.00,23.28,27.46,30.21,4.72,26.82,1016.63,2036.04,3183.06,3111.03,3366.14,349.61,346.79,16.28,0000 0000 0000 0000 000000
2014-10-04 09:38:00,0.03,0.73,0.00,23.28,27.46,30.23,4.76,26.88,1016.62,2036.03,3182.52,3110.94,3365.93,349.60,346.89,16.31,0000 0000 0000 0000 000000
2014-10-04 09:43:02,0.07,0.73,0.00,23.29,27.46,30.21,4.78,26.88,1016.62,2036.03,3181.98,3110.18,3365.18,349.90,347.29,16.34,0000 0000 0000 0000 000000
2014-10-04 09:48:03,0.03,0.73,0.00,23.27,27.46,30.20,4.75,26.78,1016.62,2036.01,3181.18,3110.00,3364.95,350.02,347.30,16.37,0000 0000 0000 0000 000000
2014-10-04 09:53:05,0.05,0.73,0.00,23.26,27.45,30.23,4.80,26.84,1016.62,2036.02,3180.84,3109.65,3364.24,350.43,347.91,16.40,0000 0000 0000 0000 000000
2014-10-04 09:58:06,0.05,0.73,0.00,23.27,27.45,30.21,4.82,26.90,1016.62,2036.05,3180.05,3109.03,3363.97,350.42,347.79,16.42,0000 0000 0000 0000 000000
2014-10-04 10:03:07,0.06,0.74,0.00,23.27,27.45,30.22,4.78,26.85,1016.62,2036.04,3179.40,3108.69,3363.21,349.94,347.27,16.45,0000 0000 0000 0000 000000
2014-10-04 10:08:08,0.04,0.74,0.00,23.24,27.45,30.21,4.80,26.88,1016.62,2036.05,3178.90,3108.04,3362.83,349.82,347.29,16.48,0000 0000 0000 0000 000000
2014-10-04 10:13:10,0.07,0.74,0.00,23.28,27.45,30.21,4.76,26.97,1016.62,2036.04,3177.98,3107.64,3362.03,349.82,347.31,16.51,0000 0000 0000 0000 000000
2014-10-04 10:18:11,0.06,0.74,0.00,23.28,27.45,30.20,4.75,26.89,1016.62,2036.03,3177.16,3107.01,3361.21,349.58,347.07,16.54,0000 0000 0000 0000 000000
2014-10-04 10:23:12,0.05,0.74,0.00,23.24,27.45,30.21,4.76,26.82,1016.62,2036.02,3176.56,3106.64,3360.91,350.01,347.24,16.57,0000 0000 0000 0000 000000
2014-10-04 10:28:13,0.04,0.74,0.00,23.24,27.45,30.25,4.76,26.80,1016.62,2036.02,3175.96,3106.02,3360.11,349.99,347.15,16.60,0000 0000 0000 0000 000000
2014-10-04 10:33:15,0.08,0.75,0.00,23.27,27.45,30.24,4.81,26.99,1016.61,2036.06,3175.17,3105.68,3359.61,350.41,347.72,16.63,0000 0000 0000 0000 000000
2014-10-04 10:38:16,0.04,0.75,0.00,23.26,27.45,30.23,4.80,26.98,1016.61,2036.02,3174.38,3105.02,3358.97,349.62,347.19,16.66,0000 0000 0000 0000 000000
2014-10-04 10:43:17,0.07,0.75,0.00,23.24,27.45,30.22,4.73,26.82,1016.62,2036.03,3173.74,3104.58,3358.17,349.80,347.27,16.69,0000 0000 0000 0000 000000
2014-10-04 10:48:18,0.04,0.75,0.00,23.24,27.45,30.22,4.79,26.97,1016.62,2036.03,3172.99,3104.01,3357.67,349.73,347.14,16.72,0000 0000 0000 0000 000000
2014-10-04 10:53:20,0.07,0.75,0.00,23.26,27.45,30.21,4.78,26.97,1016.62,2036.04,3172.13,3103.29,3356.96,350.28,347.66,16.75,0000 0000 0000 0000 000000
2014-10-04 10:58:21,0.06,0.76,0.00,23.24,27.45,30.22,4.78,26.99,1016.61,2036.04,3171.38,3102.96,3356.17,349.91,347.38,16.78,0000 0000 0000 0000 000000
2014-10-04 11:03:22,0.07,0.76,0.00,23.24,27.45,30.23,4.82,27.03,1016.60,2036.04,3170.72,3102.23,3355.65,349.58,347.00,16.81,0000 0000 0000 0000 000000
2014-10-04 11:08:23,0.03,0.76,0.00,23.27,27.45,30.22,4.75,26.98,1016.61,2036.04,3169.93,3101.85,3354.98,349.47,347.01,16.83,0000 0000 0000 0000 000000
2014-10-04 11:13:25,0.08,0.76,0.00,23.27,27.45,30.22,4.81,27.11,1016.61,2036.04,3169.05,3101.07,3354.19,349.47,346.77,16.86,0000 0000 0000 0000 000000
2014-10-04 11:18:26,0.06,0.76,0.00,23.24,27.45,30.21,4.78,26.85,1016.60,2036.05,3168.27,3100.77,3353.55,350.10,347.63,16.89,0000 0000 0000 0000 000000
2014-10-04 11:23:27,0.06,0.77,0.00,23.28,27.46,30.25,4.80,26.88,1016.57,2036.04,3167.56,3100.03,3352.91,350.29,347.72,16.92,0000 0000 0000 0000 000000
2014-10-04 11:28:28,0.08,0.77,0.00,23.32,27.47,30.23,4.80,26.89,1016.58,2036.03,3166.62,3099.39,3352.07,349.81,347.10,16.95,0000 0000 0000 0000 000000
2014-10-04 11:33:29,0.07,0.77,0.00,23.27,27.47,30.22,4.77,26.89,1016.59,2036.02,3165.73,3098.79,3351.23,349.80,347.16,16.98,0000 0000 0000 0000 000000
2014-10-04 11:38:31,0.06,0.77,0.00,23.27,27.47,30.26,4.81,26.95,1016.54,2036.03,3164.98,3098.06,3350.57,350.02,347.40,17.01,0000 0000 0000 0000 000000
2014-10-04 11:43:32,0.05,0.77,0.00,23.31,27.47,30.26,4.71,26.76,1016.36,2036.01,3164.15,3097.62,3349.97,350.01,347.35,17.04,0000 0000 0000 0000 000000
2014-10-04 11:48:33,0.06,0.78,0.00,23.29,27.47,30.25,4.86,26.89,1016.24,2036.01,3163.47,3097.02,3349.16,350.31,347.56,17.07,0000 0000 0000 0000 000000
2014-10-04 11:53:35,0.07,0.78,0.00,23.23,27.47,30.24,4.80,27.02,1016.17,2036.02,3162.78,3096.56,3348.63,349.98,347.14,17.10,0000 0000 0000 0000 000000
2014-10-04 11:58:36,0.04,0.78,0.00,23.31,27.47,30.26,4.83,26.88,1016.20,2036.02,3162.00,3096.00,3347.99,350.18,347.45,17.13,0000 0000 0000 0000 000000
2014-10-04 12:03:37,0.09,0.78,0.00,23.34,27.47,30.28,4.77,26.88,1016.21,2036.01,3161.20,3095.42,3347.20,350.15,347.17,17.16,0000 0000 0000 0000 000000
2014-10-04 12:08:39,0.05,0.78,0.00,23.27,27.47,30.25,4.76,26.85,1016.28,2036.01,3160.45,3094.95,3346.61,349.56,346.83,17.19,0000 0000 0000 0000 000000
2014-10-04 12:13:40,0.08,0.79,0.00,23.23,27.47,30.27,4.77,26.92,1016.20,2036.01,3159.54,3094.11,3345.78,349.94,347.46,17.22,0000 0000 0000 0000 000000
2014-10-04 12:18:42,0.04,0.79,0.00,23.32,27.48,30.28,4.83,26.78,1016.17,2036.00,3158.94,3093.71,3345.04,349.93,347.16,17.24,0000 0000 0000 0000 000000
2014-10-04 12:23:43,0.07,0.79,0.00,23.29,27.49,30.27,4.87,26.84,1016.16,2036.00,3158.11,3093.04,3344.54,350.36,347.56,17.27,0000 0000 0000 0000 000000
2014-10-04 12:28:44,0.06,0.79,0.00,23.24,27.49,30.26,4.74,26.72,1016.13,2036.00,3157.33,3092.66,3343.96,349.57,346.94,17.30,0000 0000 0000 0000 000000
2014-10-04 12:33:46,0.06,0.79,0.00,23.30,27.50,30.27,4.78,26.91,1016.13,2036.00,3156.73,3092.02,3343.16,349.63,346.72,17.33,0000 0000 0000 0000 000000
2014-10-04 12:38:47,0.08,0.79,0.00,23.28,27.50,30.27,4.81,27.00,1016.14,2036.00,3155.90,3091.43,3342.53,349.95,347.26,17.36,0000 0000 0000 0000 000000
2014-10-04 12:43:48,0.03,0.80,0.00,23.25,27.50,30.26,4.69,26.79,1016.14,2036.00,3155.08,3090.98,3341.94,349.90,347.16,17.39,0000 0000 0000 0000 000000
2014-10-04 12:48:49,0.09,0.80,0.00,23.30,27.50,30.28,4.71,26.82,1016.16,2036.00,3154.33,3090.21,3341.13,349.55,346.74,17.42,0000 0000 0000 0000 000000
2014-10-04 12:53:51,0.05,0.80,0.00,23.32,27.50,30.27,4.77,26.77,1016.16,2036.00,3153.67,3089.86,3340.61,350.25,347.52,17.45,0000 0000 0000 0000 000000
2014-10-04 12:58:52,0.06,0.80,0.00,23.26,27.50,30.28,4.72,26.86,1016.14,2036.00,3152.86,3089.08,3339.92,349.26,346.43,17.48,0000 0000 0000 0000 000000